Wind_Speed
12 13 13 13 13 14 16 17 18 20 23 25 26 27 27 25 23 21 20 19 19 20 21 22 21 19 18 18 18 18 18 19 19 19 18 18 19 19 19 19 18 16
13 14 14 15 14 14 15 16 18 20 23 24 25 27 28 28 25 24 22 19 18 19 20 22 23 21 19 19 19 19 19 20 19 19 18 18 19 20 19 18 17 17
11 11 12 12 12 13 14 16 18 21 23 25 26 27 29 29 28 27 25 20 19 20 21 23 24 22 20 20 20 19 20 20 20 20 19 17 18 19 19 18 17 17
9 9 10 11 12 15 17 18 19 21 23 25 26 27 29 29 28 28 26 21 19 21 22 24 24 23 21 20 20 20 19 20 21 20 19 18 18 18 19 19 17 17
9 9 9 10 12 15 17 18 19 21 22 25 26 27 27 28 27 27 24 19 18 21 23 23 24 23 21 20 21 20 19 20 20 19 18 18 18 18 18 18 18 19
10 11 11 11 12 14 16 16 19 21 22 23 25 26 26 27 26 24 22 18 17 21 23 22 23 22 21 20 21 20 18 20 20 19 17 17 17 17 17 18 18 19
11 12 12 13 14 15 16 16 18 21 22 22 23 24 25 24 22 20 18 15 15 20 22 22 22 22 21 21 21 19 18 20 20 19 17 16 16 16 16 17 17 18
11 12 13 14 16 16 16 16 18 20 21 22 22 23 22 20 18 18 16 14 14 18 21 21 20 20 19 18 18 17 18 18 18 18 17 16 16 16 16 17 18 19
11 13 14 14 15 16 15 15 16 17 19 20 21 20 19 16 14 15 14 13 14 16 18 18 17 19 18 15 14 15 16 17 17 17 16 16 16 16 16 17 18 20
12 13 13 13 13 15 15 14 15 16 17 18 18 18 16 14 12 12 11 10 11 12 13 14 15 17 17 15 13 13 14 13 14 14 14 15 15 14 15 16 18 19
13 14 15 16 16 17 16 14 14 15 17 17 17 16 15 12 11 10 9 9 9 9 9 11 12 12 13 14 12 12 13 13 13 14 14 14 13 13 15 16 17 18
14 15 16 17 17 18 17 16 16 16 17 17 16 15 14 12 11 9 8 8 8 6 6 9 10 10 11 13 13 12 13 14 14 14 14 14 14 14 16 16 16 17
16 16 16 15 16 17 17 17 17 17 17 16 15 15 13 12 11 10 8 8 7 5 5 7 10 12 12 12 12 11 12 14 14 15 15 14 14 15 16 16 16 17
15 16 15 13 14 16 16 17 16 16 16 16 15 14 13 11 11 11 9 7 7 6 5 6 9 12 12 10 10 9 11 13 13 14 15 15 14 14 16 16 16 17
15 16 15 13 12 13 15 16 16 14 13 13 14 14 13 12 11 10 8 6 6 6 6 6 8 11 12 11 9 8 9 11 12 12 13 14 14 13 14 15 16 16
15 16 16 14 12 12 14 15 16 14 12 11 11 12 12 12 11 9 7 5 6 6 5 6 8 11 11 11 10 10 10 11 12 12 12 13 14 13 14 15 15 16
14 15 16 16 15 14 15 15 16 15 13 10 10 9 10 11 10 8 6 5 4 3 4 5 8 10 10 8 8 11 11 11 13 13 14 15 15 14 15 16 16 15
13 14 15 16 16 15 14 15 15 15 14 11 8 8 9 9 7 7 6 5 2 4 7 7 7 7 8 6 6 7 8 9 10 11 12 13 14 15 16 16 15 14
14 15 16 16 15 13 13 14 15 16 15 14 12 10 10 9 8 8 8 7 4 3 6 7 7 6 6 6 6 5 5 7 7 6 8 10 12 14 14 14 13 11
14 15 16 16 14 12 12 14 16 17 17 17 16 14 13 13 12 11 10 9 6 5 5 7 7 6 7 7 7 7 7 7 6 4 6 9 10 9 10 11 11 9
14 14 15 15 13 12 12 14 16 18 19 19 19 17 17 18 17 15 13 10 6 4 6 7 7 7 8 9 8 8 8 7 5 2 2 5 7 7 9 10 11 10
14 14 13 14 13 13 13 14 16 18 20 21 20 19 20 22 21 19 16 13 10 5 2 3 4 7 10 10 9 8 6 5 3 3 2 3 6 7 8 11 12 12
12 13 14 15 14 13 13 15 17 18 19 20 20 20 21 22 23 22 20 18 16 12 8 6 3 6 11 10 9 8 6 4 4 4 4 5 7 8 8 10 13 12
13 12 13 14 14 13 13 15 17 18 19 20 20 19 19 20 21 22 21 20 18 16 13 11 9 11 11 8 6 5 4 7 6 6 10 10 9 8 7 10 13 13
14 13 13 13 13 13 13 14 15 16 17 19 19 19 19 20 21 21 21 20 19 17 16 14 13 14 11 8 10 9 8 9 4 4 8 10 8 6 6 10 16 16
16 15 13 13 13 13 11 12 13 14 15 16 17 18 19 19 20 20 20 21 19 17 15 15 15 14 10 8 12 13 11 10 5 5 8 8 6 5 7 11 16 17
Wind_Direction
271 272 272 271 274 282 288 290 290 289 289 289 288 285 281 277 273 265 259 259 264 264 259 255 254 247 241 238 232 226 219 214 213 214 214 214 212 208 208 211 212 212
276 276 274 273 274 276 282 289 292 292 291 292 291 288 284 283 278 268 261 262 266 266 261 255 254 248 242 238 232 226 219 216 214 213 212 211 208 207 208 211 213 213
291 290 290 292 293 294 293 291 291 293 294 294 294 292 289 287 282 272 266 264 265 266 262 257 254 249 243 236 231 224 218 217 214 210 208 207 207 207 209 212 213 213
303 304 309 313 312 307 301 296 295 296 297 299 299 296 291 287 283 275 267 260 259 261 260 257 254 250 242 233 228 224 218 215 215 214 211 206 205 206 209 214 215 215
295 296 296 299 302 299 295 294 298 300 302 306 307 303 294 287 284 281 272 263 260 259 256 254 252 249 242 232 226 222 217 213 216 219 214 205 202 204 208 211 213 216
297 293 282 279 284 288 291 297 302 305 309 312 313 312 305 294 290 286 278 270 267 264 260 256 252 248 243 232 224 220 216 214 214 214 212 209 205 205 208 211 213 216
303 304 299 290 286 286 292 300 306 308 312 315 316 316 311 302 296 290 281 277 278 277 272 264 256 249 242 232 225 221 217 214 212 209 208 211 212 211 214 215 213 213
312 313 311 304 302 304 304 305 306 309 314 318 320 321 316 309 307 306 303 300 299 294 282 269 258 252 246 234 225 221 217 215 212 208 205 205 211 213 214 214 210 210
320 312 311 313 317 320 316 310 309 312 317 321 323 324 322 319 320 323 322 319 314 305 291 274 260 253 247 237 223 216 216 215 213 209 204 204 211 212 212 212 209 210
325 323 330 337 335 332 328 320 315 316 321 324 325 328 327 324 326 327 325 322 317 308 288 269 259 251 243 237 232 222 215 213 212 210 208 210 215 215 214 213 209 211
345 350 354 355 350 349 348 341 331 326 327 327 329 334 335 333 332 327 317 307 305 305 283 258 252 247 235 230 231 226 225 225 221 218 215 215 218 217 216 213 208 210
3 5 2 360 357 357 356 352 343 336 333 332 332 334 335 337 337 332 319 301 290 291 284 261 248 241 235 231 225 220 229 234 229 224 221 220 221 219 216 212 207 207
11 9 5 5 1 357 354 354 350 343 340 338 335 334 333 331 331 330 326 311 295 288 286 267 244 238 242 239 230 224 228 231 228 225 221 219 218 216 212 211 210 208
12 8 6 7 5 359 355 353 349 345 346 346 343 339 334 328 328 329 325 314 305 299 291 269 241 236 235 229 225 226 226 227 227 224 218 217 217 213 211 212 212 212
16 9 4 360 359 360 356 350 346 344 344 346 349 349 341 334 332 331 326 315 306 299 285 266 243 233 225 216 217 226 228 226 223 215 213 218 218 214 215 217 216 214
22 12 3 359 357 357 354 353 355 352 342 335 343 352 349 345 345 343 337 320 303 295 278 252 235 230 228 221 211 210 215 222 221 213 213 220 217 214 221 225 223 217
23 15 8 7 6 5 3 4 6 4 355 341 337 348 354 354 0 1 348 329 303 266 225 215 218 224 231 225 201 193 196 206 213 209 207 210 210 213 222 226 222 215
23 20 16 15 14 12 13 16 16 12 11 6 358 2 1 356 4 4 349 339 310 220 202 200 205 213 221 217 197 185 177 183 197 206 207 206 206 208 213 217 215 208
24 25 23 21 19 16 15 19 20 16 16 18 20 23 18 7 0 354 349 348 330 258 218 206 202 199 202 198 177 152 145 159 174 206 226 225 218 207 200 204 207 200
27 31 28 23 21 22 22 21 22 22 22 24 26 28 27 20 9 357 349 344 327 289 251 231 219 204 187 175 154 127 117 130 144 181 225 230 226 206 187 194 198 192
29 32 32 27 24 27 29 28 31 34 34 34 35 36 38 36 27 16 7 359 351 302 256 242 235 212 180 164 152 131 114 112 114 116 177 201 200 182 176 186 186 187
31 29 31 33 33 33 34 37 44 46 43 42 43 45 51 50 45 40 36 33 33 24 305 259 239 203 172 153 146 142 130 108 78 61 92 169 178 171 180 184 179 184
34 28 28 32 34 37 42 47 54 54 51 50 50 51 55 56 54 53 52 52 51 50 48 38 48 146 148 140 138 148 145 102 69 73 104 148 164 166 179 177 167 174
37 33 33 35 35 40 51 60 64 63 60 59 58 59 61 61 60 58 55 56 56 55 58 59 68 95 111 110 105 115 88 62 66 82 83 90 114 133 160 170 162 167
38 36 37 41 42 47 58 69 72 72 71 70 69 69 69 68 67 63 58 59 60 62 71 75 75 84 92 72 57 60 52 42 53 105 74 61 72 95 130 157 157 158
43 41 42 47 49 52 61 71 74 74 74 74 74 75 75 74 72 67 63 61 59 63 72 71 62 71 86 70 55 61 58 45 56 111 85 60 65 96 127 141 141 142
Height
1509 1509 1509 1508 1508 1507 1507 1507 1507 1506 1505 1504 1503 1503 1502 1501 1503 1503 1504 1504 1504 1503 1503 1504 1504 1504 1503 1504 1504 1505 1506 1507 1508 1509 1510 1511 1513 1515 1517 1520 1522 1524
1508 1508 1508 1507 1507 1507 1506 1506 1505 1504 1503 1502 1501 1500 1499 1499 1499 1499 1500 1502 1502 1502 1501 1502 1503 1502 1502 1502 1503 1504 1505 1506 1506 1506 1507 1508 1510 1512 1515 1517 1519 1521
1507 1507 1506 1506 1506 1506 1505 1505 1504 1503 1501 1500 1499 1498 1497 1496 1496 1497 1498 1499 1499 1500 1500 1500 1500 1500 1500 1500 1501 1502 1503 1505 1505 1505 1506 1507 1508 1510 1512 1514 1516 1517
1506 1506 1506 1506 1506 1505 1504 1503 1502 1501 1500 1499 1498 1496 1494 1494 1494 1494 1494 1495 1496 1497 1498 1498 1498 1498 1498 1498 1498 1500 1501 1503 1504 1504 1505 1505 1506 1508 1509 1511 1513 1514
1505 1505 1505 1505 1505 1504 1503 1501 1500 1499 1498 1497 1496 1494 1492 1491 1491 1491 1492 1493 1494 1495 1495 1496 1496 1495 1496 1496 1496 1497 1499 1500 1502 1503 1503 1504 1505 1506 1507 1509 1510 1512
1504 1504 1503 1503 1503 1502 1501 1500 1499 1497 1497 1496 1495 1493 1491 1489 1489 1489 1490 1491 1493 1493 1493 1494 1494 1494 1494 1494 1495 1495 1496 1498 1500 1501 1502 1502 1502 1504 1505 1507 1508 1510
1503 1503 1502 1502 1501 1500 1499 1498 1498 1496 1496 1495 1493 1492 1490 1488 1487 1487 1488 1489 1491 1492 1491 1492 1493 1493 1492 1492 1492 1493 1494 1495 1497 1499 1500 1501 1501 1502 1503 1505 1506 1508
1503 1502 1501 1500 1499 1499 1498 1497 1496 1495 1494 1493 1492 1490 1488 1487 1486 1486 1486 1487 1489 1490 1490 1491 1492 1492 1491 1490 1491 1492 1492 1493 1496 1498 1499 1500 1501 1501 1502 1504 1506 1507
1502 1500 1500 1499 1498 1498 1497 1496 1495 1494 1493 1492 1491 1489 1487 1486 1485 1485 1485 1485 1485 1487 1488 1490 1490 1491 1491 1491 1490 1492 1492 1494 1495 1496 1498 1499 1500 1501 1502 1503 1505 1507
1500 1499 1498 1498 1497 1497 1496 1495 1494 1493 1492 1491 1489 1488 1486 1486 1485 1485 1484 1484 1484 1484 1486 1487 1487 1488 1490 1491 1491 1493 1495 1496 1496 1496 1497 1499 1500 1500 1501 1503 1504 1506
1500 1499 1498 1497 1497 1496 1495 1494 1493 1492 1491 1490 1488 1487 1486 1485 1485 1484 1483 1483 1483 1484 1484 1485 1485 1486 1489 1491 1492 1495 1496 1496 1497 1497 1498 1499 1499 1500 1501 1502 1504 1506
1500 1499 1498 1497 1497 1496 1495 1494 1493 1492 1491 1489 1488 1486 1485 1485 1484 1483 1483 1482 1483 1483 1484 1484 1484 1485 1488 1490 1492 1494 1495 1496 1496 1497 1498 1498 1499 1499 1500 1502 1503 1505
1500 1499 1499 1498 1497 1496 1495 1493 1492 1492 1490 1489 1488 1486 1485 1485 1484 1483 1483 1483 1483 1483 1483 1483 1483 1484 1486 1489 1491 1493 1494 1495 1496 1497 1497 1498 1498 1498 1500 1502 1503 1504
1501 1500 1499 1498 1497 1496 1494 1493 1492 1491 1490 1489 1487 1486 1485 1484 1483 1483 1482 1482 1483 1483 1483 1483 1483 1484 1485 1488 1489 1491 1493 1494 1495 1496 1497 1498 1498 1498 1499 1501 1502 1504
1501 1500 1499 1498 1497 1495 1494 1492 1491 1490 1490 1488 1487 1486 1485 1484 1483 1482 1482 1482 1482 1483 1483 1483 1483 1483 1485 1487 1489 1490 1492 1493 1495 1496 1497 1497 1497 1497 1498 1500 1502 1504
1501 1500 1499 1497 1496 1495 1493 1492 1491 1490 1489 1488 1487 1486 1485 1484 1483 1482 1482 1482 1482 1482 1483 1483 1483 1484 1485 1486 1489 1491 1492 1493 1494 1495 1496 1497 1497 1497 1498 1500 1502 1503
1501 1500 1499 1497 1496 1495 1493 1492 1491 1490 1489 1488 1487 1486 1485 1484 1483 1482 1482 1482 1482 1482 1482 1482 1483 1484 1485 1486 1488 1491 1493 1494 1494 1495 1496 1496 1497 1498 1498 1500 1501 1502
1502 1501 1499 1498 1497 1495 1494 1493 1492 1491 1489 1488 1487 1486 1485 1484 1484 1482 1482 1482 1482 1482 1482 1482 1483 1484 1484 1485 1487 1490 1493 1494 1495 1496 1496 1496 1496 1497 1498 1499 1500 1502
1502 1501 1500 1499 1498 1496 1495 1494 1493 1492 1490 1488 1487 1486 1485 1484 1484 1483 1482 1483 1483 1482 1481 1481 1483 1484 1484 1486 1487 1489 1492 1494 1495 1496 1496 1495 1494 1495 1497 1498 1500 1502
1503 1502 1501 1499 1498 1497 1497 1495 1494 1493 1491 1489 1488 1486 1485 1485 1484 1483 1483 1483 1483 1482 1481 1481 1482 1484 1485 1486 1488 1490 1491 1493 1494 1495 1495 1495 1495 1496 1497 1499 1501 1502
1503 1502 1501 1500 1499 1498 1497 1496 1495 1494 1493 1491 1489 1488 1487 1486 1485 1484 1484 1483 1483 1483 1482 1482 1482 1484 1485 1487 1489 1490 1491 1492 1493 1494 1495 1495 1496 1496 1497 1498 1500 1502
1504 1503 1502 1501 1500 1499 1498 1497 1497 1496 1495 1494 1492 1491 1490 1489 1488 1487 1486 1485 1484 1484 1484 1484 1484 1485 1486 1489 1490 1492 1492 1492 1493 1495 1495 1496 1496 1496 1497 1498 1501 1503
1505 1504 1503 1502 1501 1500 1499 1499 1498 1498 1497 1496 1495 1494 1493 1492 1491 1490 1489 1488 1487 1486 1486 1486 1486 1486 1487 1490 1492 1493 1493 1494 1494 1495 1496 1496 1496 1497 1499 1500 1502 1504
1505 1504 1504 1503 1502 1501 1501 1500 1500 1499 1499 1498 1497 1496 1495 1495 1494 1493 1493 1491 1490 1489 1488 1488 1488 1488 1490 1493 1494 1493 1494 1495 1495 1496 1497 1498 1498 1500 1501 1503 1504 1506
1506 1505 1505 1504 1504 1503 1502 1502 1501 1501 1501 1500 1499 1499 1498 1498 1497 1496 1496 1495 1494 1493 1491 1491 1491 1491 1493 1495 1495 1495 1496 1497 1498 1498 1500 1501 1502 1503 1504 1505 1506 1507
1507 1507 1506 1505 1505 1504 1504 1504 1503 1503 1502 1502 1501 1501 1500 1500 1499 1499 1498 1497 1497 1495 1494 1494 1494 1494 1496 1498 1498 1498 1499 1500 1501 1501 1502 1503 1504 1505 1507 1507 1507 1507